{"data":{"norad_id":65720,"epoch":"2026-05-25T03:03:13.262112Z","epoch_age_seconds":78245,"freshness":"FRESH","line1":"1 65720U 25214J   26145.12723683  .00001291  00000+0  18356-3 0  9992","line2":"2 65720  49.9922  55.2525 0009453 124.6508 235.5322 14.83266830 36088","mean_motion":14.8326683,"eccentricity":0.0009453,"inclination_deg":49.9922,"raan_deg":55.2525,"arg_perigee_deg":124.6508,"mean_anomaly_deg":235.5322,"bstar":0.00018356,"rev_number":3608,"period_min":97.083004276446,"perigee_km":612.41684757624,"apogee_km":625.64569390891,"semimajor_km":6997.1682707426,"source":"CELESTRAK","updated_at":"2026-05-25T13:38:05.628610Z"}}